This demonstration page uses our WeatherBlox Daily Observations layout. Learn more.

Left ArrowRight Arrow

39.95238, -75.16362

Hourly Observations for April 19, 2022

Temp ( °F °C ) Dew Point ( °F °C ) Humidity (%) Winds ( mph kmh ) Pressure ( in mb ) Visibility ( mi km ) Precip ( " mm )
12:20 am 00:20 Cloudy with Light Rain 44 6.7 41 5 89 89 NNE 16 26 29.69 1005 2 2 0.00 0.00
12:54 am 00:54 Cloudy with Light Rain 43 6.1 40 4.4 89 89 N 17 28 29.66 1004 2 2 0.00 0.00
1:54 am 01:54 Cloudy with Light Rain 44 6.7 39 3.9 83 83 NNW 22 35 29.62 1003 2 2 0.00 0.00
2:19 am 02:19 Cloudy with Light Rain 44 6.7 38 3.3 79 79 NNW 22 35 29.62 1003 3 4 0.00 0.00
2:37 am 02:37 Cloudy with Light Rain 44 6.7 38 3.3 79 79 NNW 20 31 29.62 1003 4 6 0.00 0.00
2:54 am 02:54 Cloudy with Drizzle 40 4.4 37 2.8 89 89 NW 22 35 29.61 1003 4 6 0.00 0.00
3:12 am 03:12 Cloudy with Mist and Fog 39 3.9 37 2.8 93 93 NW 21 33 29.62 1003 5 8 0.00 0.00
3:31 am 03:31 Cloudy with Mist and Fog 39 3.9 37 2.8 93 93 NW 18 30 29.63 1003 5 8 0.00 0.00
3:54 am 03:54 Cloudy with Mist and Fog 39 3.9 37 2.8 93 93 NW 22 35 29.65 1004 5 8 0.00 0.00
4:41 am 04:41 Cloudy 39 3.9 37 2.8 93 93 NW 18 30 29.68 1005 8 13 0.00 0.00
4:47 am 04:47 Cloudy 40 4.4 37 2.8 89 89 WNW 20 31 29.69 1005 9 14 0.00 0.00
4:54 am 04:54 Cloudy 40 4.4 37 2.8 89 89 WNW 20 31 29.69 1005 9 14 0.00 0.00
5:37 am 05:37 Cloudy 39 3.9 36 2.2 89 89 NW 20 31 29.69 1005 10 16 0.00 0.00
5:54 am 05:54 Mostly Cloudy 39 3.9 36 2.2 89 89 WNW 18 30 29.70 1006 10 16 0.00 0.00
6:11 am 06:11 Mostly Cloudy 39 3.9 36 2.2 89 89 WNW 20 31 29.71 1006 10 16 0.00 0.00
6:54 am 06:54 Mostly Cloudy with Light Rain 39 3.9 35 1.7 86 86 WNW 20 31 29.74 1007 10 16 0.00 0.00
7:54 am 07:54 Partly Cloudy 41 5 35 1.7 79 79 WNW 15 24 29.77 1008 10 16 0.00 0.00
8:54 am 08:54 Mostly Sunny 44 6.7 35 1.7 71 71 WNW 17 28 29.78 1009 10 16 0.00 0.00
9:54 am 09:54 Partly Cloudy 45 7.2 34 1.1 66 66 W 20 31 29.79 1009 10 16 0.00 0.00
10:54 am 10:54 Mostly Cloudy 48 8.9 32 0 54 54 WNW 20 31 29.81 1009 10 16 0.00 0.00
11:54 am 11:54 Mostly Cloudy 49 9.4 33 0.6 55 55 W 17 28 29.82 1010 10 16 0.00 0.00
12:54 pm 12:54 Mostly Cloudy with Light Rain 49 9.4 29 -1.7 46 46 W 22 35 29.83 1010 10 16 0.00 0.00
1:41 pm 13:41 Mostly Cloudy 49 9.4 29 -1.7 46 46 W 18 30 29.85 1011 10 16 0.00 0.00
1:54 pm 13:54 Mostly Cloudy 49 9.4 28 -2.2 44 44 W 24 39 29.85 1011 10 16 0.00 0.00
2:54 pm 14:54 Mostly Cloudy 52 11.1 30 -1.1 43 43 W 22 35 29.87 1012 10 16 0.00 0.00
3:54 pm 15:54 Mostly Cloudy 48 8.9 32 0 54 54 W 21 33 29.90 1013 10 16 0.00 0.00
4:54 pm 16:54 Mostly Cloudy 50 10 32 0 50 50 W 15 24 29.91 1013 10 16 0.00 0.00
5:54 pm 17:54 Mostly Cloudy 50 10 28 -2.2 43 43 W 18 30 29.94 1014 10 16 0.00 0.00
6:54 pm 18:54 Mostly Cloudy 48 8.9 27 -2.8 44 44 WNW 18 30 29.98 1015 10 16 0.00 0.00
7:54 pm 19:54 Partly Cloudy 46 7.8 26 -3.3 46 46 WNW 20 31 30.01 1016 10 16 0.00 0.00
8:54 pm 20:54 Mostly Clear 45 7.2 26 -3.3 48 48 W 14 22 30.05 1018 10 16 0.00 0.00
9:54 pm 21:54 Mostly Clear 45 7.2 26 -3.3 48 48 W 16 26 30.09 1019 10 16 0.00 0.00
10:54 pm 22:54 Clear 43 6.1 26 -3.3 51 51 W 10 17 30.11 1020 10 16 0.00 0.00
11:54 pm 23:54 Clear 43 6.1 26 -3.3 51 51 W 12 19 30.13 1020 10 16 0.00 0.00

Powered by AerisWeather